| time (UTC) | temp C | wind direction | speed KPH | gust KPH | rain 1hr cm | rain 24hr cm | rain mn cm | humidity % | barometer mb |
| 20260503050055 | 7 | 0 | 0.0 | 1.6 | 0.00 | 0.15 | 0.15 | 87 | 1018.6 |
| 20260503044612 | 8 | 0 | 0.0 | 1.6 | 0.00 | 0.15 | 0.15 | 88 | 1018.7 |
| 20260503043056 | 8 | 253 | 0.0 | 1.6 | 0.00 | 0.15 | 0.15 | 87 | 1018.5 |
| 20260503041612 | 8 | 0 | 0.0 | 1.6 | 0.03 | 0.15 | 0.15 | 86 | 1018.5 |
| 20260503040054 | 8 | 0 | 0.0 | 1.6 | 0.05 | 0.15 | 0.15 | 86 | 1018.2 |
| 20260503034554 | 8 | 155 | 1.6 | 9.7 | 0.08 | 0.15 | 0.15 | 83 | 1018.0 |
| 20260503033114 | 8 | 281 | 0.0 | 4.8 | 0.08 | 0.15 | 0.15 | 82 | 1018.2 |
| 20260503031554 | 8 | 251 | 3.2 | 6.4 | 0.05 | 0.13 | 0.13 | 80 | 1017.8 |
| 20260503030105 | 10 | 267 | 1.6 | 3.2 | 0.03 | 0.10 | 0.10 | 75 | 1018.5 |
| 20260503024601 | 11 | 231 | 1.6 | 6.4 | 0.00 | 0.08 | 0.08 | 64 | 1018.1 |
| 20260503023051 | 11 | 279 | 0.0 | 6.4 | 0.00 | 0.08 | 0.08 | 63 | 1017.2 |
| 20260503021552 | 11 | 278 | 0.0 | 11.3 | 0.00 | 0.08 | 0.08 | 62 | 1017.0 |
| 20260503020055 | 12 | 316 | 3.2 | 16.1 | 0.00 | 0.08 | 0.08 | 60 | 1016.9 |
| 20260503014551 | 12 | 300 | 1.6 | 3.2 | 0.00 | 0.08 | 0.08 | 54 | 1016.9 |
| 20260503013049 | 13 | 315 | 0.0 | 1.6 | 0.00 | 0.08 | 0.08 | 53 | 1017.0 |
| 20260503011601 | 13 | 316 | 1.6 | 3.2 | 0.03 | 0.08 | 0.08 | 56 | 1017.0 |
| 20260503010052 | 12 | 0 | 0.0 | 4.8 | 0.05 | 0.08 | 0.08 | 59 | 1017.2 |
| 20260503004551 | 11 | 103 | 0.0 | 11.3 | 0.05 | 0.08 | 0.08 | 59 | 1017.2 |
| 20260503003100 | 12 | 44 | 4.8 | 22.5 | 0.05 | 0.08 | 0.08 | 60 | 1017.5 |
| 20260503001550 | 12 | 236 | 9.7 | 22.5 | 0.03 | 0.05 | 0.05 | 52 | 1017.5 |
| 20260503000053 | 13 | 250 | 3.2 | 17.7 | 0.03 | 0.03 | 0.03 | 50 | 1017.1 |
| 20260502234554 | 14 | 135 | 4.8 | 17.7 | 0.03 | 0.03 | 0.03 | 42 | 1016.5 |
| 20260502233049 | 14 | 214 | 3.2 | 12.9 | 0.03 | 0.03 | 0.03 | 41 | 1016.7 |
| 20260502231556 | 13 | 270 | 0.0 | 17.7 | 0.03 | 0.03 | 0.03 | 51 | 1017.0 |
| 20260502230051 | 16 | 126 | 3.2 | 24.1 | 0.00 | 0.00 | 0.00 | 36 | 1017.1 |
| 20260502224551 | 17 | 205 | 4.8 | 12.9 | 0.00 | 0.00 | 0.00 | 30 | 1016.7 |
| 20260502223054 | 18 | 239 | 4.8 | 11.3 | 0.00 | 0.00 | 0.00 | 30 | 1016.6 |
| 20260502221555 | 17 | 252 | 3.2 | 11.3 | 0.00 | 0.00 | 0.00 | 31 | 1016.7 |
| 20260502220141 | 17 | 216 | 1.6 | 11.3 | 0.00 | 0.00 | 0.00 | 31 | 1017.3 |
| 20260502214602 | 17 | 291 | 4.8 | 11.3 | 0.00 | 0.00 | 0.00 | 30 | 1017.4 |
| 20260502213104 | 17 | 277 | 4.8 | 12.9 | 0.00 | 0.00 | 0.00 | 30 | 1017.6 |
| 20260502211552 | 17 | 204 | 3.2 | 9.7 | 0.00 | 0.00 | 0.00 | 30 | 1017.7 |
| 20260502210104 | 18 | 102 | 1.6 | 11.3 | 0.00 | 0.00 | 0.00 | 27 | 1017.9 |
| 20260502204601 | 18 | 304 | 6.4 | 14.5 | 0.00 | 0.00 | 0.00 | 27 | 1017.9 |
| 20260502203108 | 18 | 192 | 3.2 | 12.9 | 0.00 | 0.00 | 0.00 | 28 | 1018.0 |
| 20260502201553 | 18 | 258 | 3.2 | 12.9 | 0.00 | 0.00 | 0.00 | 26 | 1018.0 |
| 20260502200052 | 19 | 50 | 4.8 | 17.7 | 0.00 | 0.00 | 0.00 | 27 | 1018.2 |
| 20260502194559 | 18 | 203 | 6.4 | 17.7 | 0.00 | 0.00 | 0.00 | 27 | 1018.3 |
| 20260502193100 | 19 | 149 | 3.2 | 22.5 | 0.00 | 0.00 | 0.00 | 26 | 1018.3 |
| 20260502191605 | 19 | 302 | 9.7 | 20.9 | 0.00 | 0.00 | 0.00 | 26 | 1018.4 |
| 20260502190111 | 18 | 276 | 8.0 | 20.9 | 0.00 | 0.00 | 0.00 | 27 | 1018.4 |
| 20260502184554 | 17 | 104 | 4.8 | 16.1 | 0.00 | 0.00 | 0.00 | 29 | 1018.5 |
| 20260502183102 | 18 | 212 | 3.2 | 9.7 | 0.00 | 0.00 | 0.00 | 28 | 1018.6 |
| 20260502181553 | 18 | 121 | 3.2 | 16.1 | 0.00 | 0.00 | 0.00 | 28 | 1018.7 |
| 20260502180108 | 17 | 113 | 3.2 | 16.1 | 0.00 | 0.00 | 0.00 | 28 | 1018.8 |
| 20260502163108 | 16 | 220 | 3.2 | 20.9 | 0.00 | 0.00 | 0.00 | 30 | 1018.5 |
| 20260502161554 | 16 | 161 | 3.2 | 12.9 | 0.00 | 0.00 | 0.00 | 31 | 1018.6 |
| 20260502151559 | 13 | 0 | 0.0 | 6.4 | 0.00 | 0.00 | 0.00 | 37 | 1018.5 |
| 20260502130104 | 5 | 0 | 0.0 | 1.6 | 0.00 | 0.00 | 0.00 | 36 | 1017.7 |
| 20260502123058 | 5 | 262 | 0.0 | 3.2 | 0.00 | 0.00 | 0.00 | 35 | 1017.6 |
| 20260502121559 | 5 | 280 | 0.0 | 1.6 | 0.00 | 0.00 | 0.00 | 34 | 1017.6 |
| 20260502114553 | 6 | 0 | 0.0 | 1.6 | 0.00 | 0.00 | 0.00 | 33 | 1017.6 |
| 20260502113055 | 6 | 257 | 0.0 | 1.6 | 0.00 | 0.00 | 0.00 | 33 | 1017.7 |
| 20260502111554 | 6 | 257 | 0.0 | 1.6 | 0.00 | 0.00 | 0.00 | 34 | 1017.7 |
| 20260502110053 | 6 | 0 | 0.0 | 1.6 | 0.00 | 0.00 | 0.00 | 34 | 1017.7 |
| 20260502104554 | 6 | 0 | 0.0 | 1.6 | 0.00 | 0.00 | 0.00 | 33 | 1017.7 |
| 20260502103051 | 6 | 260 | 0.0 | 1.6 | 0.00 | 0.00 | 0.00 | 33 | 1017.7 |
| 20260502101552 | 6 | 0 | 0.0 | 1.6 | 0.00 | 0.00 | 0.00 | 33 | 1017.7 |
| 20260502070101 | 10 | 232 | 0.0 | 1.6 | 0.00 | 0.00 | 0.00 | 23 | 1019.0 |
| 20260502064549 | 10 | 243 | 0.0 | 3.2 | 0.00 | 0.00 | 0.00 | 23 | 1018.9 |
| 20260502063052 | 10 | 187 | 0.0 | 1.6 | 0.00 | 0.00 | 0.00 | 23 | 1018.8 |
| 20260502061550 | 10 | 0 | 0.0 | 1.6 | 0.00 | 0.00 | 0.00 | 23 | 1018.9 |
| 20260502060054 | 10 | 0 | 0.0 | 1.6 | 0.00 | 0.00 | 0.00 | 24 | 1019.0 |
| 20260502054557 | 9 | 0 | 0.0 | 0.0 | 0.00 | 0.00 | 0.00 | 25 | 1019.0 |
| 20260502053053 | 8 | 0 | 0.0 | 0.0 | 0.00 | 0.00 | 0.00 | 26 | 1019.1 |
| 20260502051549 | 9 | 0 | 0.0 | 1.6 | 0.00 | 0.00 | 0.00 | 26 | 1019.1 |